WZZ8815 LWSK-EBCI

Flight info

Callsign WZZ8815
Flight time 2h 39m
Altitude 34000
Route RAXAD DCT VAGEN DCT SOMUN DCT SIVLA DCT OBUTI DCT SIMBA DCT MAMOR DCT INBED DCT TEKTU DCT TESGA DCT UMUPU T880 BATTY
Aircraft A21N/M-SDE1E2E3FGIJ1J4RWXY/LB1

Departure

Time 2026-04-27 12:54
Airport Skopje International Airport (LWSK)

Arrival

Time 2026-04-27 15:34
Airport Brussels South Charleroi Airport (EBCI)
Time Latitude Longitude Altitude Speed Heading
2026-04-27 12:24 41.96143 21.62561 799 ft 0 kts 76°
2026-04-27 12:40 41.96140 21.62544 798 ft 3 kts 78°
2026-04-27 12:40 41.96133 21.62524 798 ft 2 kts 36°
2026-04-27 12:41 41.96119 21.62511 798 ft 3 kts 14°
2026-04-27 12:41 41.96100 21.62511 798 ft 3 kts 341°
2026-04-27 12:41 41.96082 21.62520 798 ft 3 kts 345°
2026-04-27 12:41 41.96080 21.62521 798 ft 0 kts 346°
2026-04-27 12:46 41.96087 21.62518 798 ft 3 kts 346°
2026-04-27 12:46 41.96115 21.62502 798 ft 5 kts 312°
2026-04-27 12:46 41.96111 21.62450 797 ft 7 kts 219°
2026-04-27 12:47 41.96059 21.62449 797 ft 8 kts 166°
2026-04-27 12:47 41.96018 21.62463 797 ft 5 kts 165°
2026-04-27 12:47 41.95978 21.62477 796 ft 7 kts 165°
2026-04-27 12:47 41.95926 21.62495 796 ft 9 kts 165°
2026-04-27 12:48 41.95863 21.62517 796 ft 10 kts 165°
2026-04-27 12:48 41.95792 21.62541 794 ft 11 kts 165°
2026-04-27 12:48 41.95712 21.62571 792 ft 12 kts 165°
2026-04-27 12:48 41.95623 21.62603 791 ft 14 kts 165°
2026-04-27 12:49 41.95530 21.62635 790 ft 13 kts 165°
2026-04-27 12:49 41.95440 21.62667 788 ft 13 kts 165°
2026-04-27 12:49 41.95349 21.62700 787 ft 14 kts 163°
2026-04-27 12:49 41.95262 21.62734 785 ft 5 kts 165°
2026-04-27 12:50 41.95223 21.62748 785 ft 6 kts 165°
2026-04-27 12:50 41.95175 21.62749 784 ft 8 kts 203°
2026-04-27 12:50 41.95136 21.62689 784 ft 10 kts 249°
2026-04-27 12:50 41.95121 21.62594 784 ft 9 kts 257°
2026-04-27 12:51 41.95085 21.62531 787 ft 10 kts 190°
2026-04-27 12:51 41.95013 21.62545 786 ft 9 kts 166°
2026-04-27 12:51 41.94950 21.62567 785 ft 10 kts 165°
2026-04-27 12:51 41.94876 21.62593 784 ft 12 kts 165°
2026-04-27 12:52 41.94818 21.62639 785 ft 10 kts 139°
2026-04-27 12:52 41.94778 21.62686 784 ft 5 kts 141°
2026-04-27 12:52 41.94743 21.62706 782 ft 5 kts 167°
2026-04-27 12:52 41.94717 21.62710 782 ft 4 kts 198°
2026-04-27 12:53 41.94744 21.62637 784 ft 8 kts 344°
2026-04-27 12:53 41.94759 21.62631 784 ft 0 kts 346°
2026-04-27 12:53 41.94819 21.62611 785 ft 35 kts 346°
2026-04-27 12:54 41.95305 21.62443 787 ft 107 kts 345°
2026-04-27 12:54 41.96212 21.62129 795 ft 158 kts 347°
2026-04-27 12:54 41.97315 21.61808 1218 ft 161 kts 358°
2026-04-27 12:54 41.98424 21.62096 1706 ft 165 kts 24°
2026-04-27 12:55 41.99390 21.62992 2132 ft 179 kts 49°
2026-04-27 12:55 41.99827 21.64611 2484 ft 200 kts 92°
2026-04-27 12:55 41.99534 21.66515 3025 ft 218 kts 102°
2026-04-27 12:55 41.99245 21.68634 3442 ft 242 kts 94°
2026-04-27 12:56 41.99456 21.70908 4091 ft 253 kts 68°
2026-04-27 12:56 42.00374 21.72976 4805 ft 262 kts 52°
2026-04-27 12:56 42.01501 21.74934 5652 ft 268 kts 51°
2026-04-27 12:56 42.02653 21.76937 6526 ft 274 kts 51°
2026-04-27 12:57 42.03802 21.78963 7340 ft 278 kts 51°
2026-04-27 12:57 42.04981 21.81059 8152 ft 284 kts 51°
2026-04-27 12:57 42.06178 21.83198 8965 ft 288 kts 51°
2026-04-27 12:57 42.07389 21.85371 9789 ft 292 kts 51°
2026-04-27 12:58 42.08627 21.87594 10387 ft 304 kts 51°
2026-04-27 12:58 42.09963 21.89910 10769 ft 322 kts 49°
2026-04-27 12:58 42.11414 21.92288 11288 ft 333 kts 48°
2026-04-27 12:58 42.12895 21.94718 12035 ft 337 kts 49°
2026-04-27 12:59 42.14390 21.97167 12829 ft 340 kts 49°
2026-04-27 12:59 42.15896 21.99636 13634 ft 343 kts 48°
2026-04-27 12:59 42.17418 22.02126 14382 ft 346 kts 49°
2026-04-27 12:59 42.18948 22.04648 15077 ft 349 kts 49°
2026-04-27 13:00 42.20491 22.07195 15758 ft 353 kts 49°
2026-04-27 13:00 42.22052 22.09768 16443 ft 356 kts 49°
2026-04-27 13:00 42.23628 22.12371 17119 ft 360 kts 49°
2026-04-27 13:00 42.25221 22.15000 17777 ft 364 kts 49°
2026-04-27 13:01 42.26834 22.17659 18425 ft 368 kts 48°
2026-04-27 13:01 42.28637 22.20120 18976 ft 370 kts 36°
2026-04-27 13:01 42.30858 22.21860 19519 ft 370 kts 19°
2026-04-27 13:01 42.33358 22.22644 20069 ft 370 kts
2026-04-27 13:02 42.35922 22.22407 20604 ft 371 kts 346°
2026-04-27 13:02 42.38412 22.21465 21135 ft 374 kts 341°
2026-04-27 13:02 42.40906 22.20392 21666 ft 378 kts 341°
2026-04-27 13:02 42.43424 22.19332 22249 ft 381 kts 341°
2026-04-27 13:03 42.45967 22.18298 22803 ft 383 kts 341°
2026-04-27 13:03 42.48538 22.17268 23323 ft 387 kts 342°
2026-04-27 13:03 42.51135 22.16237 23824 ft 391 kts 342°
2026-04-27 13:03 42.53757 22.15205 24260 ft 394 kts 342°
2026-04-27 13:04 42.56393 22.14172 24726 ft 396 kts 342°
2026-04-27 13:04 42.59042 22.13126 25191 ft 398 kts 342°
2026-04-27 13:04 42.61705 22.12072 25660 ft 399 kts 341°
2026-04-27 13:04 42.64377 22.11013 26123 ft 401 kts 341°
2026-04-27 13:05 42.67057 22.09944 26568 ft 402 kts 341°
2026-04-27 13:05 42.69731 22.08800 27005 ft 403 kts 338°
2026-04-27 13:05 42.72243 22.07137 27398 ft 402 kts 326°
2026-04-27 13:05 42.74421 22.04767 27794 ft 402 kts 314°
2026-04-27 13:06 42.76317 22.01974 28206 ft 402 kts 310°
2026-04-27 13:06 42.78167 21.99102 28584 ft 404 kts 310°
2026-04-27 13:06 42.80030 21.96216 28962 ft 407 kts 310°
2026-04-27 13:06 42.81892 21.93367 29316 ft 409 kts 310°
2026-04-27 13:07 42.83816 21.90432 29697 ft 411 kts 310°
2026-04-27 13:07 42.85706 21.87564 30057 ft 413 kts 311°
2026-04-27 13:07 42.87669 21.84627 30401 ft 415 kts 311°
2026-04-27 13:07 42.89617 21.81720 30710 ft 416 kts 311°
2026-04-27 13:08 42.91561 21.78791 31003 ft 417 kts 310°
2026-04-27 13:08 42.93500 21.75845 31326 ft 418 kts 310°
2026-04-27 13:08 42.95434 21.72896 31704 ft 416 kts 310°
2026-04-27 13:08 42.97333 21.69997 32111 ft 414 kts 310°
2026-04-27 13:09 42.99247 21.67069 32490 ft 412 kts 310°
2026-04-27 13:09 43.01150 21.64151 32849 ft 411 kts 310°
2026-04-27 13:09 43.03050 21.61243 33177 ft 410 kts 310°
2026-04-27 13:09 43.04946 21.58341 33526 ft 408 kts 310°
2026-04-27 13:10 43.06834 21.55447 33846 ft 407 kts 310°
2026-04-27 13:10 43.08712 21.52558 34146 ft 406 kts 309°
2026-04-27 13:10 43.12465 21.46776 34226 ft 406 kts 309°
2026-04-27 13:11 43.16206 21.41002 34215 ft 405 kts 309°
2026-04-27 13:11 43.19939 21.35228 34203 ft 405 kts 309°
2026-04-27 13:12 43.23672 21.29450 34199 ft 405 kts 309°
2026-04-27 13:12 43.27395 21.23668 34202 ft 404 kts 309°
2026-04-27 13:13 43.31118 21.17886 34199 ft 404 kts 309°
2026-04-27 13:13 43.34829 21.12089 34202 ft 404 kts 309°
2026-04-27 13:14 43.38546 21.06291 34198 ft 404 kts 309°
2026-04-27 13:14 43.42240 21.00489 34208 ft 401 kts 309°
2026-04-27 13:15 43.45921 20.94732 34199 ft 400 kts 309°
2026-04-27 13:15 43.49597 20.88971 34201 ft 400 kts 309°
2026-04-27 13:16 43.53274 20.83189 34202 ft 402 kts 309°
2026-04-27 13:16 43.56329 20.78373 34202 ft 402 kts 308°
2026-04-27 13:17 43.60597 20.71628 34195 ft 401 kts 308°
2026-04-27 13:17 43.64263 20.65824 34199 ft 401 kts 308°
2026-04-27 13:18 43.67923 20.60012 34179 ft 401 kts 308°
2026-04-27 13:18 43.70988 20.55135 34182 ft 401 kts 308°
2026-04-27 13:19 43.74650 20.49308 34173 ft 402 kts 308°
2026-04-27 13:19 43.78309 20.43461 34174 ft 402 kts 308°
2026-04-27 13:20 43.81972 20.37613 34176 ft 402 kts 308°
2026-04-27 13:20 43.85603 20.31797 34179 ft 402 kts 308°
2026-04-27 13:21 43.89256 20.25927 34179 ft 402 kts 308°
2026-04-27 13:21 43.92914 20.20033 34184 ft 404 kts 308°
2026-04-27 13:22 43.96579 20.14111 34184 ft 404 kts 308°
2026-04-27 13:22 44.00249 20.08196 34187 ft 404 kts 309°
2026-04-27 13:23 44.03916 20.02268 34185 ft 404 kts 308°
2026-04-27 13:23 44.07577 19.96327 34180 ft 405 kts 309°
2026-04-27 13:24 44.11244 19.90353 34180 ft 406 kts 309°
2026-04-27 13:24 44.14917 19.84383 34179 ft 405 kts 309°
2026-04-27 13:25 44.18578 19.78408 34178 ft 406 kts 309°
2026-04-27 13:25 44.22233 19.72417 34180 ft 406 kts 308°
2026-04-27 13:26 44.25894 19.66412 34184 ft 407 kts 309°
2026-04-27 13:26 44.29564 19.60391 34173 ft 407 kts 309°
2026-04-27 13:27 44.33232 19.54353 34175 ft 408 kts 309°
2026-04-27 13:27 44.36896 19.48309 34177 ft 408 kts 309°
2026-04-27 13:28 44.40557 19.42256 34173 ft 408 kts 309°
2026-04-27 13:28 44.44220 19.36183 34183 ft 408 kts 309°
2026-04-27 13:29 44.47880 19.30100 34184 ft 409 kts 309°
2026-04-27 13:29 44.51545 19.24010 34184 ft 409 kts 309°
2026-04-27 13:30 44.55175 19.17952 34190 ft 408 kts 309°
2026-04-27 13:30 44.58791 19.11818 34182 ft 408 kts 310°
2026-04-27 13:31 44.62702 19.06047 34180 ft 408 kts 314°
2026-04-27 13:31 44.66712 19.00399 34188 ft 408 kts 314°
2026-04-27 13:32 44.70708 18.94723 34186 ft 408 kts 314°
2026-04-27 13:32 44.74721 18.89078 34188 ft 408 kts 314°
2026-04-27 13:33 44.78722 18.83403 34185 ft 408 kts 314°
2026-04-27 13:33 44.82708 18.77715 34185 ft 407 kts 314°
2026-04-27 13:34 44.86685 18.72025 34185 ft 407 kts 314°
2026-04-27 13:34 44.90665 18.66336 34186 ft 407 kts 314°
2026-04-27 13:35 44.94610 18.60677 34175 ft 408 kts 314°
2026-04-27 13:35 44.98578 18.54960 34186 ft 408 kts 314°
2026-04-27 13:36 45.02549 18.49232 34180 ft 408 kts 314°
2026-04-27 13:36 45.06512 18.43497 34195 ft 408 kts 314°
2026-04-27 13:37 45.10450 18.37740 34185 ft 407 kts 313°
2026-04-27 13:37 45.14218 18.31761 34177 ft 406 kts 312°
2026-04-27 13:38 45.17970 18.25779 34183 ft 406 kts 313°
2026-04-27 13:38 45.21719 18.19778 34182 ft 406 kts 313°
2026-04-27 13:39 45.25463 18.13776 34178 ft 406 kts 313°
2026-04-27 13:39 45.29208 18.07768 34183 ft 406 kts 312°
2026-04-27 13:40 45.32948 18.01756 34176 ft 406 kts 313°
2026-04-27 13:40 45.36675 17.95732 34181 ft 406 kts 313°
2026-04-27 13:41 45.40404 17.89710 34179 ft 406 kts 313°
2026-04-27 13:41 45.44132 17.83676 34177 ft 406 kts 313°
2026-04-27 13:42 45.47835 17.77668 34175 ft 406 kts 313°
2026-04-27 13:42 45.51581 17.71573 34171 ft 406 kts 313°
2026-04-27 13:43 45.55265 17.65554 34173 ft 406 kts 313°
2026-04-27 13:43 45.58977 17.59492 34173 ft 406 kts 313°
2026-04-27 13:44 45.62683 17.53426 34176 ft 404 kts 313°
2026-04-27 13:44 45.66371 17.47372 34174 ft 404 kts 313°
2026-04-27 13:45 45.70048 17.41306 34171 ft 403 kts 313°
2026-04-27 13:45 45.73732 17.35251 34173 ft 403 kts 313°
2026-04-27 13:46 45.77406 17.29182 34171 ft 403 kts 313°
2026-04-27 13:46 45.81074 17.23107 34171 ft 403 kts 313°
2026-04-27 13:47 45.84742 17.17026 34164 ft 403 kts 313°
2026-04-27 13:47 45.88412 17.10929 34175 ft 404 kts 313°
2026-04-27 13:48 45.92070 17.04828 34175 ft 403 kts 313°
2026-04-27 13:48 45.95723 16.98730 34179 ft 403 kts 313°
2026-04-27 13:49 45.99373 16.92619 34177 ft 403 kts 313°
2026-04-27 13:49 46.03007 16.86485 34165 ft 403 kts 313°
2026-04-27 13:50 46.06660 16.80366 34181 ft 403 kts 312°
2026-04-27 13:50 46.10303 16.74217 34183 ft 404 kts 312°
2026-04-27 13:51 46.13943 16.68061 34183 ft 403 kts 312°
2026-04-27 13:51 46.17589 16.61912 34190 ft 403 kts 312°
2026-04-27 13:52 46.21219 16.55768 34176 ft 402 kts 312°
2026-04-27 13:52 46.24835 16.49600 34179 ft 402 kts 311°
2026-04-27 13:53 46.30195 16.40333 34181 ft 402 kts 311°
2026-04-27 13:54 46.33825 16.34106 34175 ft 402 kts 311°
2026-04-27 13:54 46.37409 16.27960 34177 ft 402 kts 311°
2026-04-27 13:55 46.41107 16.21881 34174 ft 403 kts 313°
2026-04-27 13:55 46.44818 16.15786 34184 ft 403 kts 312°
2026-04-27 13:56 46.48499 16.09659 34177 ft 402 kts 312°
2026-04-27 13:56 46.52170 16.03525 34184 ft 402 kts 312°
2026-04-27 13:57 46.55837 15.97385 34173 ft 403 kts 312°
2026-04-27 13:57 46.59505 15.91231 34173 ft 402 kts 312°
2026-04-27 13:58 46.63166 15.85075 34175 ft 403 kts 312°
2026-04-27 13:58 46.66826 15.78904 34175 ft 403 kts 311°
2026-04-27 13:59 46.70481 15.72726 34168 ft 402 kts 311°
2026-04-27 13:59 46.74122 15.66561 34177 ft 400 kts 311°
2026-04-27 14:00 46.77746 15.60404 34156 ft 400 kts 311°
2026-04-27 14:00 46.81377 15.54228 34167 ft 401 kts 311°
2026-04-27 14:01 46.85005 15.48034 34171 ft 401 kts 311°
2026-04-27 14:01 46.88636 15.41834 34170 ft 402 kts 311°
2026-04-27 14:02 46.92262 15.35618 34171 ft 402 kts 311°
2026-04-27 14:02 46.95886 15.29398 34164 ft 402 kts 311°
2026-04-27 14:03 46.99517 15.23150 34178 ft 403 kts 311°
2026-04-27 14:03 47.03135 15.16908 34167 ft 401 kts 311°
2026-04-27 14:04 47.06744 15.10671 34157 ft 401 kts 311°
2026-04-27 14:04 47.10348 15.04428 34150 ft 401 kts 311°
2026-04-27 14:05 47.13949 14.98176 34108 ft 401 kts 311°
2026-04-27 14:05 47.17533 14.91936 34115 ft 403 kts 310°
2026-04-27 14:06 47.20557 14.86654 34111 ft 403 kts 310°
2026-04-27 14:06 47.24172 14.80344 34111 ft 403 kts 310°
2026-04-27 14:07 47.27774 14.74018 34127 ft 403 kts 310°
2026-04-27 14:07 47.31364 14.67724 34114 ft 401 kts 310°
2026-04-27 14:08 47.34941 14.61426 34114 ft 400 kts 310°
2026-04-27 14:08 47.38509 14.55139 34122 ft 400 kts 310°
2026-04-27 14:09 47.42069 14.48836 34126 ft 400 kts 310°
2026-04-27 14:09 47.45630 14.42519 34136 ft 400 kts 310°
2026-04-27 14:10 47.49165 14.36229 34145 ft 400 kts 310°
2026-04-27 14:10 47.52721 14.29899 34156 ft 400 kts 310°
2026-04-27 14:11 47.56267 14.23577 34160 ft 398 kts 310°
2026-04-27 14:11 47.59794 14.17266 34153 ft 398 kts 310°
2026-04-27 14:12 47.63318 14.10950 34170 ft 398 kts 310°
2026-04-27 14:12 47.66828 14.04611 34165 ft 397 kts 310°
2026-04-27 14:13 47.70348 13.98289 34157 ft 397 kts 310°
2026-04-27 14:13 47.73868 13.91943 34172 ft 398 kts 310°
2026-04-27 14:14 47.77385 13.85583 34173 ft 399 kts 310°
2026-04-27 14:14 47.80897 13.79211 34171 ft 398 kts 310°
2026-04-27 14:15 47.84402 13.72836 34182 ft 398 kts 310°
2026-04-27 14:15 47.87898 13.66457 34177 ft 397 kts 310°
2026-04-27 14:16 47.91388 13.60069 34172 ft 397 kts 309°
2026-04-27 14:16 47.94873 13.53685 34180 ft 397 kts 309°
2026-04-27 14:17 47.98355 13.47299 34184 ft 397 kts 309°
2026-04-27 14:17 48.01825 13.40905 34190 ft 396 kts 309°
2026-04-27 14:18 48.05291 13.34509 34187 ft 396 kts 309°
2026-04-27 14:18 48.08750 13.28100 34176 ft 397 kts 309°
2026-04-27 14:19 48.12223 13.21681 34183 ft 397 kts 309°
2026-04-27 14:19 48.15686 13.15245 34184 ft 397 kts 309°
2026-04-27 14:20 48.19150 13.08795 34187 ft 397 kts 309°
2026-04-27 14:20 48.22606 13.02414 34185 ft 397 kts 312°
2026-04-27 14:21 48.26785 12.97002 34190 ft 397 kts 321°
2026-04-27 14:21 48.31132 12.91861 34187 ft 398 kts 320°
2026-04-27 14:22 48.35465 12.86681 34188 ft 398 kts 320°
2026-04-27 14:22 48.39793 12.81489 34193 ft 398 kts 320°
2026-04-27 14:23 48.44122 12.76306 34188 ft 397 kts 320°
2026-04-27 14:23 48.48446 12.71116 34189 ft 397 kts 320°
2026-04-27 14:24 48.52764 12.65906 34196 ft 397 kts 320°
2026-04-27 14:24 48.57073 12.60684 34194 ft 397 kts 320°
2026-04-27 14:25 48.61388 12.55464 34196 ft 398 kts 320°
2026-04-27 14:25 48.65689 12.50242 34198 ft 395 kts 319°
2026-04-27 14:26 48.69972 12.45025 34196 ft 395 kts 319°
2026-04-27 14:26 48.74252 12.39802 34201 ft 395 kts 319°
2026-04-27 14:27 48.78532 12.34563 34203 ft 395 kts 319°
2026-04-27 14:27 48.82805 12.29314 34202 ft 395 kts 319°
2026-04-27 14:28 48.87064 12.24027 34201 ft 395 kts 316°
2026-04-27 14:28 48.90485 12.17593 34209 ft 392 kts 301°
2026-04-27 14:29 48.93290 12.10488 34206 ft 392 kts 300°
2026-04-27 14:29 48.96100 12.03384 34200 ft 392 kts 301°
2026-04-27 14:30 48.98927 11.96291 34197 ft 392 kts 301°
2026-04-27 14:30 49.01751 11.89190 34195 ft 392 kts 300°
2026-04-27 14:31 49.04546 11.82130 34195 ft 392 kts 300°
2026-04-27 14:31 49.07354 11.75000 34194 ft 392 kts 300°
2026-04-27 14:32 49.10154 11.67866 34194 ft 392 kts 300°
2026-04-27 14:32 49.12956 11.60729 34195 ft 392 kts 300°
2026-04-27 14:33 49.15755 11.53589 34189 ft 392 kts 300°
2026-04-27 14:33 49.18550 11.46432 34202 ft 391 kts 300°
2026-04-27 14:34 49.21332 11.39305 34191 ft 391 kts 300°
2026-04-27 14:34 49.24109 11.32153 34191 ft 391 kts 300°
2026-04-27 14:35 49.26885 11.24996 34192 ft 391 kts 299°
2026-04-27 14:35 49.29653 11.17826 34193 ft 391 kts 299°
2026-04-27 14:36 49.32417 11.10660 34196 ft 391 kts 299°
2026-04-27 14:36 49.35178 11.03483 34201 ft 391 kts 299°
2026-04-27 14:37 49.37935 10.96293 34200 ft 391 kts 299°
2026-04-27 14:37 49.41208 10.89601 34207 ft 393 kts 308°
2026-04-27 14:38 49.44736 10.83188 34206 ft 393 kts 308°
2026-04-27 14:38 49.48253 10.76749 34222 ft 393 kts 307°
2026-04-27 14:39 49.51759 10.70299 34214 ft 393 kts 307°
2026-04-27 14:39 49.55260 10.63838 34212 ft 393 kts 307°
2026-04-27 14:40 49.58757 10.57368 34210 ft 393 kts 307°
2026-04-27 14:40 49.62253 10.50892 34214 ft 393 kts 307°
2026-04-27 14:41 49.65739 10.44406 34220 ft 393 kts 307°
2026-04-27 14:41 49.69224 10.37914 34221 ft 393 kts 306°
2026-04-27 14:42 49.72705 10.31411 34220 ft 393 kts 306°
2026-04-27 14:42 49.76189 10.24891 34235 ft 393 kts 306°
2026-04-27 14:43 49.79659 10.18372 34232 ft 392 kts 306°
2026-04-27 14:43 49.83104 10.11887 34229 ft 392 kts 306°
2026-04-27 14:44 49.86567 10.05355 34232 ft 392 kts 306°
2026-04-27 14:44 49.90027 9.98809 34221 ft 393 kts 306°
2026-04-27 14:45 49.93482 9.92257 34231 ft 392 kts 306°
2026-04-27 14:45 49.96930 9.85697 34229 ft 392 kts 306°
2026-04-27 14:46 50.00377 9.79134 34225 ft 392 kts 306°
2026-04-27 14:46 50.03820 9.72558 34236 ft 392 kts 306°
2026-04-27 14:47 50.07255 9.65975 34226 ft 392 kts 306°
2026-04-27 14:47 50.10686 9.59377 34230 ft 392 kts 306°
2026-04-27 14:48 50.14116 9.52774 34230 ft 392 kts 306°
2026-04-27 14:48 50.19257 9.42841 34223 ft 392 kts 305°
2026-04-27 14:49 50.22678 9.36211 34230 ft 392 kts 305°
2026-04-27 14:49 50.26094 9.29573 34228 ft 392 kts 305°
2026-04-27 14:50 50.29505 9.22933 34244 ft 392 kts 305°
2026-04-27 14:50 50.32902 9.16266 34230 ft 391 kts 303°
2026-04-27 14:51 50.35298 9.08757 34230 ft 385 kts 286°
2026-04-27 14:51 50.36604 9.02093 34220 ft 385 kts 285°
2026-04-27 14:52 50.38435 8.92707 34231 ft 385 kts 285°
2026-04-27 14:52 50.39745 8.86044 34233 ft 386 kts 285°
2026-04-27 14:53 50.41325 8.78004 34219 ft 386 kts 285°
2026-04-27 14:53 50.42902 8.69961 34220 ft 386 kts 285°
2026-04-27 14:54 50.44609 8.60580 34219 ft 384 kts 280°
2026-04-27 14:54 50.45330 8.53658 34222 ft 383 kts 278°
2026-04-27 14:55 50.46143 8.45387 34217 ft 383 kts 278°
2026-04-27 14:55 50.46960 8.37114 34225 ft 383 kts 278°
2026-04-27 14:56 50.47771 8.28854 34213 ft 383 kts 278°
2026-04-27 14:56 50.48580 8.20595 34221 ft 383 kts 278°
2026-04-27 14:57 50.49380 8.12332 34213 ft 383 kts 278°
2026-04-27 14:57 50.50175 8.04070 34209 ft 383 kts 278°
2026-04-27 14:58 50.50962 7.95845 34217 ft 384 kts 278°
2026-04-27 14:58 50.51749 7.87558 34211 ft 383 kts 277°
2026-04-27 14:59 50.52528 7.79294 34216 ft 382 kts 277°
2026-04-27 14:59 50.53298 7.71032 34209 ft 382 kts 277°
2026-04-27 15:00 50.54064 7.62769 34211 ft 382 kts 277°
2026-04-27 15:00 50.54822 7.54514 34222 ft 381 kts 277°
2026-04-27 15:01 50.55575 7.46254 34203 ft 382 kts 277°
2026-04-27 15:01 50.55919 7.37942 34206 ft 381 kts 271°
2026-04-27 15:02 50.55971 7.29620 34205 ft 380 kts 270°
2026-04-27 15:02 50.56025 7.21301 34204 ft 380 kts 270°
2026-04-27 15:03 50.55959 7.12987 34200 ft 380 kts 268°
2026-04-27 15:03 50.55781 7.04673 34213 ft 380 kts 268°
2026-04-27 15:04 50.55598 6.96362 34209 ft 380 kts 268°
2026-04-27 15:04 50.55407 6.88069 34227 ft 379 kts 268°
2026-04-27 15:05 50.55206 6.79787 34223 ft 378 kts 268°
2026-04-27 15:05 50.55007 6.71518 34231 ft 379 kts 269°
2026-04-27 15:06 50.55603 6.63305 34209 ft 379 kts 279°
2026-04-27 15:06 50.56617 6.55201 34204 ft 373 kts 279°
2026-04-27 15:07 50.57599 6.47169 34220 ft 377 kts 279°
2026-04-27 15:07 50.58571 6.39054 34211 ft 377 kts 279°
2026-04-27 15:08 50.59538 6.30936 34215 ft 377 kts 279°
2026-04-27 15:08 50.60496 6.22848 34113 ft 373 kts 279°
2026-04-27 15:09 50.60966 6.18877 33822 ft 362 kts 279°
2026-04-27 15:09 50.61421 6.15007 33562 ft 357 kts 279°
2026-04-27 15:09 50.61870 6.11172 33197 ft 354 kts 279°
2026-04-27 15:09 50.62312 6.07387 32722 ft 349 kts 279°
2026-04-27 15:10 50.62746 6.03640 32197 ft 347 kts 278°
2026-04-27 15:10 50.63178 5.99924 31696 ft 344 kts 278°
2026-04-27 15:10 50.63606 5.96234 31197 ft 341 kts 278°
2026-04-27 15:10 50.64028 5.92579 30726 ft 338 kts 278°
2026-04-27 15:11 50.64445 5.88961 30256 ft 334 kts 278°
2026-04-27 15:11 50.64927 5.85388 29702 ft 333 kts 284°
2026-04-27 15:11 50.65795 5.82013 29190 ft 332 kts 292°
2026-04-27 15:11 50.66824 5.78819 28726 ft 329 kts 293°
2026-04-27 15:12 50.67870 5.75632 28270 ft 325 kts 293°
2026-04-27 15:12 50.68899 5.72476 27829 ft 322 kts 293°
2026-04-27 15:12 50.69911 5.69353 27377 ft 319 kts 293°
2026-04-27 15:12 50.70910 5.66250 26926 ft 316 kts 293°
2026-04-27 15:13 50.71910 5.63133 26513 ft 319 kts 293°
2026-04-27 15:13 50.72908 5.60021 26093 ft 316 kts 293°
2026-04-27 15:13 50.73896 5.56929 25636 ft 314 kts 293°
2026-04-27 15:13 50.74876 5.53861 25251 ft 312 kts 292°
2026-04-27 15:14 50.75849 5.50807 24792 ft 311 kts 292°
2026-04-27 15:14 50.76819 5.47758 24342 ft 310 kts 292°
2026-04-27 15:14 50.77786 5.44712 23915 ft 318 kts 293°
2026-04-27 15:14 50.78826 5.41424 23596 ft 347 kts 293°
2026-04-27 15:15 50.79943 5.37898 23479 ft 369 kts 293°
2026-04-27 15:15 50.81080 5.34319 23305 ft 355 kts 293°
2026-04-27 15:15 50.82160 5.30920 23034 ft 340 kts 293°
2026-04-27 15:15 50.83218 5.27570 22268 ft 341 kts 293°
2026-04-27 15:16 50.84280 5.24193 21390 ft 345 kts 293°
2026-04-27 15:16 50.85356 5.20768 20497 ft 350 kts 294°
2026-04-27 15:16 50.86447 5.17299 19808 ft 353 kts 294°
2026-04-27 15:16 50.87443 5.13750 19327 ft 351 kts 286°
2026-04-27 15:17 50.87875 5.09988 18826 ft 345 kts 274°
2026-04-27 15:17 50.88039 5.06213 18194 ft 343 kts 273°
2026-04-27 15:17 50.88181 5.02455 17498 ft 341 kts 273°
2026-04-27 15:17 50.88329 4.98725 16808 ft 339 kts 273°
2026-04-27 15:18 50.88485 4.95035 16380 ft 330 kts 273°
2026-04-27 15:18 50.88637 4.91484 16174 ft 316 kts 273°
2026-04-27 15:18 50.88782 4.88085 15995 ft 302 kts 273°
2026-04-27 15:18 50.88924 4.84836 15791 ft 290 kts 273°
2026-04-27 15:19 50.89061 4.81644 15545 ft 290 kts 273°
2026-04-27 15:19 50.89196 4.78472 15243 ft 288 kts 273°
2026-04-27 15:19 50.89330 4.75344 14891 ft 288 kts 273°
2026-04-27 15:19 50.89465 4.72132 14543 ft 289 kts 273°
2026-04-27 15:20 50.89598 4.68958 14188 ft 290 kts 273°
2026-04-27 15:20 50.89732 4.65769 13791 ft 291 kts 273°
2026-04-27 15:20 50.89864 4.62573 13396 ft 291 kts 273°
2026-04-27 15:20 50.89996 4.59374 13017 ft 291 kts 273°
2026-04-27 15:21 50.89987 4.56185 12638 ft 290 kts 261°
2026-04-27 15:21 50.89319 4.53193 12270 ft 290 kts 239°
2026-04-27 15:21 50.87965 4.50854 11930 ft 290 kts 220°
2026-04-27 15:21 50.86347 4.48956 11589 ft 289 kts 217°
2026-04-27 15:22 50.84742 4.47129 11243 ft 288 kts 218°
2026-04-27 15:22 50.83127 4.45265 10887 ft 287 kts 218°
2026-04-27 15:22 50.81521 4.43395 10543 ft 286 kts 218°
2026-04-27 15:22 50.79904 4.41496 10204 ft 285 kts 218°
2026-04-27 15:23 50.78338 4.39652 9855 ft 284 kts 218°
2026-04-27 15:23 50.76757 4.37802 9489 ft 281 kts 217°
2026-04-27 15:23 50.75185 4.35986 9126 ft 279 kts 218°
2026-04-27 15:23 50.73620 4.34166 8765 ft 278 kts 218°
2026-04-27 15:24 50.72069 4.32349 8408 ft 278 kts 218°
2026-04-27 15:24 50.70525 4.30528 8042 ft 276 kts 218°
2026-04-27 15:24 50.68992 4.28729 7600 ft 274 kts 218°
2026-04-27 15:24 50.67466 4.26939 7167 ft 272 kts 218°
2026-04-27 15:25 50.65948 4.25162 6725 ft 271 kts 217°
2026-04-27 15:25 50.64441 4.23384 6266 ft 270 kts 217°
2026-04-27 15:25 50.62949 4.21613 5928 ft 265 kts 217°
2026-04-27 15:25 50.61511 4.19892 5745 ft 254 kts 218°
2026-04-27 15:26 50.60140 4.18249 5601 ft 241 kts 218°
2026-04-27 15:26 50.58842 4.16688 5452 ft 229 kts 218°
2026-04-27 15:26 50.57611 4.15203 5225 ft 219 kts 217°
2026-04-27 15:26 50.56415 4.13758 4915 ft 215 kts 218°
2026-04-27 15:27 50.55231 4.12328 4514 ft 215 kts 218°
2026-04-27 15:27 50.54039 4.10894 4097 ft 216 kts 216°
2026-04-27 15:27 50.52666 4.09994 3637 ft 217 kts 184°
2026-04-27 15:27 50.51227 4.10360 3297 ft 206 kts 149°
2026-04-27 15:28 50.50179 4.11711 3060 ft 188 kts 129°
2026-04-27 15:28 50.49319 4.13240 2984 ft 186 kts 127°
2026-04-27 15:28 50.48472 4.14779 2981 ft 186 kts 127°
2026-04-27 15:28 50.47620 4.16314 2983 ft 187 kts 127°
2026-04-27 15:29 50.46755 4.17855 2982 ft 188 kts 127°
2026-04-27 15:29 50.45911 4.19376 2797 ft 184 kts 127°
2026-04-27 15:29 50.45054 4.20896 2514 ft 188 kts 127°
2026-04-27 15:29 50.44189 4.22437 2481 ft 188 kts 128°
2026-04-27 15:30 50.43463 4.24102 2468 ft 183 kts 105°
2026-04-27 15:30 50.43464 4.26026 2476 ft 176 kts 71°
2026-04-27 15:30 50.43744 4.27894 2485 ft 178 kts 82°
2026-04-27 15:30 50.43831 4.29747 2481 ft 160 kts 83°
2026-04-27 15:31 50.43888 4.31401 2478 ft 148 kts 83°
2026-04-27 15:31 50.43933 4.32895 2489 ft 131 kts 83°
2026-04-27 15:31 50.43930 4.34310 2400 ft 129 kts 86°
2026-04-27 15:31 50.43927 4.35713 2125 ft 129 kts 86°
2026-04-27 15:32 50.43922 4.37113 1813 ft 128 kts 85°
2026-04-27 15:32 50.44036 4.38470 1460 ft 124 kts 72°
2026-04-27 15:32 50.44321 4.39719 1238 ft 122 kts 63°
2026-04-27 15:32 50.44712 4.40925 1052 ft 125 kts 62°
2026-04-27 15:33 50.45082 4.42180 891 ft 127 kts 63°
2026-04-27 15:33 50.45452 4.43445 734 ft 127 kts 64°
2026-04-27 15:33 50.45808 4.44687 623 ft 120 kts 64°
2026-04-27 15:33 50.46104 4.45694 600 ft 70 kts 65°
2026-04-27 15:34 50.46187 4.45976 597 ft 0 kts 65°
2026-04-27 15:34 50.46194 4.46001 597 ft 6 kts 65°
2026-04-27 15:34 50.46221 4.46093 597 ft 12 kts 65°
2026-04-27 15:34 50.46289 4.46150 595 ft 13 kts 340°
2026-04-27 15:35 50.46344 4.46111 596 ft 6 kts 335°
2026-04-27 15:35 50.46388 4.46097 597 ft 7 kts 19°
2026-04-27 15:35 50.46425 4.46168 596 ft 10 kts 64°
2026-04-27 15:35 50.46454 4.46276 596 ft 12 kts 68°
2026-04-27 15:36 50.46489 4.46406 594 ft 14 kts 66°
2026-04-27 15:36 50.46532 4.46553 596 ft 16 kts 63°
2026-04-27 15:36 50.46574 4.46687 596 ft 10 kts 65°
2026-04-27 15:36 50.46606 4.46783 597 ft 10 kts 40°
2026-04-27 15:37 50.46668 4.46803 596 ft 8 kts 20°
2026-04-27 15:37 50.46703 4.46876 595 ft 10 kts 70°
2026-04-27 15:37 50.46731 4.46981 594 ft 11 kts 64°
2026-04-27 15:37 50.46762 4.47085 594 ft 10 kts 66°
2026-04-27 15:38 50.46789 4.47177 594 ft 6 kts 65°
2026-04-27 15:38 50.46798 4.47207 594 ft 0 kts 65°
2026-04-27 15:38 50.46803 4.47224 594 ft 4 kts 65°
2026-04-27 15:39 50.46817 4.47273 593 ft 6 kts 64°
2026-04-27 15:39 50.46839 4.47337 592 ft 6 kts 46°
2026-04-27 15:39 50.46876 4.47324 590 ft 4 kts 340°
2026-04-27 15:39 50.46900 4.47308 590 ft 0 kts 335°
2026-04-27 15:40 50.46906 4.47303 590 ft 3 kts 335°
2026-04-27 15:40 50.46917 4.47294 590 ft 2 kts 336°
2026-04-27 15:40 50.46925 4.47289 590 ft 0 kts 335°
2026-04-27 15:40 50.46926 4.47288 590 ft 0 kts 335°